Home   Weather   Pully   Past weeks

Flag for Switzerland Past Weather in Pully, Vaud, Switzerland — Yesterday and Last 2 Weeks

Now
41 °F

Quite cool.


Feels Like: 37 °F
Forecast: 39 / 50 °F
Wind: 7 mph from Northeast

Location: Aigle

Current Time: Apr 27, 2017 at 11:12:57 pm

Latest Report: Apr 27, 2017 at 10:00 pm


Visibility: N/A

Pressure: 29.94 "Hg

Humidity: 78%

Dew Point: 35 °F

Location of PullyLocation

Past Weather in Pully — Graph

°F

Pully Temperature Yesterday

Maximum temperature yesterday: 48 °F (at 12:00 am)
Minimum temperature yesterday: 44 °F (at 11:00 pm)
Average temperature yesterday: 47 °F

High & Low Weather Summary for the Past Weeks

 TemperatureHumidityPressure
High69 °F (Apr 13, 6:00 pm)99% (Apr 26, 1:00 am)30.52 "Hg (Apr 26, 1:00 am)
Low26 °F (Apr 20, 7:00 am)20% (Apr 18, 5:00 pm)29.70 "Hg (Apr 25, 10:00 pm)
Average49 °F64%30.11 "Hg
* Reported Apr 12 8:00 pm — Apr 27 8:00 pm, Pully, Weather by CustomWeather, © 2017

Note: Actual official high and low records may vary slightly from our data, if they occured in-between our weather recording intervals... More about our weather records

Advertising

Pully Weather History for the Previous 24 Hours

Scroll right to see more
 ConditionsComfort  
Time TempWeatherWind HumidityBarometerVisibility
8:00 pm
Thu, Apr 27
42 °FOvercast.10 mph74%29.93 "Hg4 mi
7:00 pm43 °FQuite cool.13 mph72%29.92 "HgN/A
6:00 pm43 °FQuite cool.12 mph77%29.93 "HgN/A
5:00 pm43 °FOvercast.10 mph75%29.94 "Hg6 mi
4:00 pm42 °FQuite cool.9 mph77%29.95 "HgN/A
3:00 pm43 °FQuite cool.8 mph75%29.97 "HgN/A
2:00 pm43 °FOvercast.10 mph71%29.97 "Hg11 mi
1:00 pm43 °FQuite cool.10 mph74%29.97 "HgN/A
12:00 pm42 °FQuite cool.12 mph76%29.97 "HgN/A
11:00 am42 °FQuite cool.12 mph77%29.97 "HgN/A
10:00 am42 °FQuite cool.12 mph77%29.97 "HgN/A
9:00 am42 °FQuite cool.7 mph77%29.97 "HgN/A
8:00 am41 °FOvercast.2 mph84%29.96 "Hg10 mi
7:00 am40 °FQuite cool.8 mph82%29.96 "HgN/A
6:00 am39 °FChilly.10 mph85%29.96 "HgN/A
5:00 am39 °FDrizzle. Low clouds.7 mph88%29.95 "Hg6 mi
4:00 am40 °FChilly.9 mph90%29.96 "HgN/A
3:00 am40 °FChilly.9 mph86%29.95 "HgN/A
2:00 am41 °FQuite cool.7 mph88%29.95 "HgN/A
1:00 am41 °FQuite cool.8 mph90%29.94 "HgN/A
12:00 am42 °FQuite cool.13 mph85%29.93 "HgN/A
11:00 pm
Wed, Apr 26
44 °FQuite cool.10 mph83%29.90 "HgN/A
Weather by CustomWeather, © 2017

See weather overviewHow to use our weather pages